Weather History for Houghton, MI

Change the Weather History Date:

Friday, February 15, 2013

  Actual Average Record
Temperature  
Mean Temperature 10 °F -  
Max Temperature 12 °F 21 °F 44 °F (1981)
Min Temperature 8 °F 8 °F -14 °F (2014)
Degree Days  
Heating Degree Days 55    
Moisture  
Dew Point 5 °F    
Average Humidity 76    
Maximum Humidity 92    
Minimum Humidity 65    
Precipitation  
Precipitation 0.04 in - - ()
Sea Level Pressure  
Sea Level Pressure 30.09 in    
Wind  
Wind Speed 11 mph (NNW)    
Max Wind Speed 20 mph    
Max Gust Speed 25 mph    
Visibility 4 miles    
Events Fog , Snow    
Averages and records for this station are not official NWS values.
T = Trace of Precipitation, MM = Missing Value Source: NWS Daily Summary

Daily Weather History Graph

Daily Weather History Graph

Search for Another Location

Airport:

Trip Planner

Search our weather history database for the weather conditions in past years. The results will help you decide how hot, cold, wet, or windy it might be!

Date:

Astronomy

Feb. 15, 2013 Rise Set
Actual Time 7:58 AM EST 6:18 PM EST
Civil Twilight 7:26 AM EST 6:49 PM EST
Nautical Twilight 6:51 AM EST 7:25 PM EST
Astronomical Twilight 6:15 AM EST 8:01 PM EST
Moon 10:08 AM EST (2/15) No Moon Set
Length of Visible Light 11h 23m
Length of Day
10h 20m
Waxing Crescent, 30% of the Moon is Illuminated
Feb 15
Waxing Crescent
Feb 17
First Quarter
Feb 25
Full
Mar 4
Last Quarter
Mar 11
New

Hourly Weather History & Observations

Time (EST) Temp. Windchill Dew Point Humidity Pressure Visibility Wind Dir Wind Speed Gust Speed Precip Events Conditions
12:53 AM 12.9 °F -0.2 °F 3.9 °F 67% 30.03 in 10.0 mi NNW 10.4 mph - N/A   Mostly Cloudy
1:03 AM 12.2 °F -1.0 °F 3.2 °F 67% 29.97 in 10.0 mi NNW 10.4 mph - N/A   Mostly Cloudy
1:53 AM 12.9 °F -0.9 °F 3.0 °F 65% 30.04 in 10.0 mi NNW 11.5 mph - N/A   Mostly Cloudy
2:02 AM 12.2 °F -0.2 °F 3.2 °F 67% 29.97 in 10.0 mi NNW 9.2 mph - N/A   Scattered Clouds
2:53 AM 12.0 °F -0.4 °F 3.0 °F 67% 30.05 in 10.0 mi NNW 9.2 mph - N/A   Mostly Cloudy
3:53 AM 12.0 °F 0.5 °F 3.0 °F 67% 30.06 in 10.0 mi NNW 8.1 mph - N/A   Mostly Cloudy
4:53 AM 12.9 °F 0.7 °F 3.9 °F 67% 30.06 in 10.0 mi NNW 9.2 mph - N/A   Overcast
5:53 AM 12.9 °F 3.8 °F 7.0 °F 77% 30.07 in 4.0 mi NNW 5.8 mph - 0.00 in Snow Light Snow
6:34 AM 12.2 °F 1.7 °F 5.0 °F 73% 30.01 in 10.0 mi NNW 6.9 mph - 0.00 in   Overcast
6:53 AM 12.0 °F -0.4 °F 3.9 °F 70% 30.08 in 10.0 mi NW 9.2 mph - 0.00 in   Overcast
7:43 AM 12.2 °F -1.0 °F 5.0 °F 73% 30.02 in 10.0 mi NW 10.4 mph - 0.00 in Snow Light Snow
7:53 AM 12.9 °F 1.6 °F 5.0 °F 71% 30.10 in 9.0 mi NW 8.1 mph - 0.00 in   Overcast
8:03 AM 12.2 °F 0.7 °F 8.6 °F 85% 30.03 in 1.8 mi NNW 8.1 mph - 0.00 in Snow Light Snow
8:20 AM 12.2 °F -0.2 °F 8.6 °F 85% 30.03 in 1.2 mi NNW 9.2 mph - 0.00 in Snow Light Snow
8:53 AM 12.0 °F -2.7 °F 8.1 °F 84% 30.12 in 1.2 mi NNW 12.7 mph - 0.01 in Snow Light Snow
9:21 AM 12.2 °F -2.5 °F 6.8 °F 79% 30.05 in 3.0 mi NW 12.7 mph - 0.00 in Snow Light Snow
9:28 AM 12.2 °F -2.5 °F 6.8 °F 79% 30.06 in 4.0 mi NW 12.7 mph - 0.00 in Snow Light Snow
9:53 AM 12.0 °F -2.7 °F 3.0 °F 67% 30.13 in 4.0 mi NNW 12.7 mph - 0.00 in Snow Light Snow
10:30 AM 10.4 °F -4.8 °F 5.0 °F 79% 30.06 in 2.5 mi NNW 12.7 mph - 0.00 in Snow Light Snow
10:53 AM 12.0 °F -4.0 °F 3.0 °F 67% 30.13 in 4.0 mi North 15.0 mph 20.7 mph 0.00 in Snow Light Snow
11:41 AM 12.2 °F -4.8 °F 5.0 °F 73% 30.06 in 2.0 mi NNW 17.3 mph - 0.00 in Snow Light Snow
11:53 AM 12.0 °F -2.7 °F 5.0 °F 73% 30.14 in 2.5 mi North 12.7 mph 25.3 mph 0.00 in Snow Light Snow
12:02 PM 12.2 °F -3.7 °F 6.8 °F 79% 30.07 in 0.8 mi NNW 15.0 mph - 0.00 in Snow Light Snow
12:20 PM 10.4 °F -6.6 °F 5.0 °F 79% 30.07 in 1.5 mi NNW 16.1 mph 21.9 mph 0.00 in Snow Light Snow
12:48 PM 10.4 °F -8.2 °F 3.2 °F 73% 30.07 in 3.0 mi NNW 19.6 mph - 0.00 in Snow Light Snow
12:53 PM 10.9 °F -5.4 °F 3.0 °F 70% 30.14 in 4.0 mi NNW 15.0 mph - 0.00 in Snow Light Snow
1:14 PM 10.4 °F -6.6 °F 3.2 °F 73% 30.07 in 2.5 mi North 16.1 mph - 0.00 in Snow Light Snow
1:33 PM 10.4 °F -6.0 °F 3.2 °F 73% 30.06 in 1.2 mi North 15.0 mph - 0.00 in Snow Light Snow
1:53 PM 10.9 °F -4.7 °F 1.9 °F 67% 30.14 in 3.0 mi NNW 13.8 mph - 0.00 in Snow Light Snow
2:01 PM 10.4 °F -7.2 °F 3.2 °F 73% 30.07 in 2.0 mi NW 17.3 mph 21.9 mph 0.00 in Snow Light Snow
2:09 PM 10.4 °F -5.4 °F 3.2 °F 73% 30.06 in 1.0 mi NNW 13.8 mph 21.9 mph 0.00 in Snow Light Snow
2:24 PM 10.4 °F -7.2 °F 3.2 °F 73% 30.06 in 0.8 mi NNW 17.3 mph - 0.00 in Snow Light Snow
2:33 PM 10.4 °F -4.8 °F 3.2 °F 73% 30.06 in 1.2 mi NNW 12.7 mph - 0.00 in Snow Light Snow
2:50 PM 10.4 °F -4.1 °F 1.4 °F 67% 30.06 in 3.0 mi NW 11.5 mph - 0.00 in Snow Light Snow
2:53 PM 10.9 °F -4.7 °F 1.9 °F 67% 30.14 in 3.0 mi NNW 13.8 mph 24.2 mph 0.00 in Snow Light Snow
3:02 PM 10.4 °F -5.4 °F 3.2 °F 73% 30.07 in 2.0 mi NNW 13.8 mph - 0.00 in Snow Light Snow
3:07 PM 10.4 °F -4.8 °F 1.4 °F 67% 30.07 in 4.0 mi NW 12.7 mph - 0.00 in Snow Light Snow
3:36 PM 10.4 °F -6.6 °F 1.4 °F 67% 30.07 in 8.0 mi NW 16.1 mph - 0.00 in   Overcast
3:53 PM 10.9 °F -5.9 °F 3.0 °F 70% 30.16 in 4.0 mi NW 16.1 mph - 0.00 in Snow Light Snow
4:04 PM 10.4 °F -7.7 °F 1.4 °F 67% 30.08 in 6.0 mi NW 18.4 mph - 0.00 in Snow Light Snow
4:12 PM 10.4 °F -5.4 °F 1.4 °F 67% 30.08 in 7.0 mi NNW 13.8 mph - 0.00 in   Overcast
4:26 PM 10.4 °F -6.6 °F 1.4 °F 67% 30.08 in 2.5 mi NW 16.1 mph - 0.00 in Snow Light Snow
4:29 PM 10.4 °F -7.2 °F 3.2 °F 73% 30.08 in 1.8 mi NW 17.3 mph 23.0 mph 0.00 in Snow Light Snow
4:46 PM 10.4 °F -6.0 °F 5.0 °F 79% 30.09 in 0.8 mi NW 15.0 mph - 0.00 in Snow Light Snow
4:53 PM 10.9 °F -5.9 °F 6.1 °F 81% 30.16 in 0.8 mi NW 16.1 mph - 0.00 in Snow Light Snow
5:06 PM 10.4 °F -6.6 °F 5.0 °F 79% 30.09 in 1.5 mi NW 16.1 mph - 0.00 in Snow Light Snow
5:29 PM 10.4 °F -4.1 °F 6.8 °F 85% 30.09 in 0.5 mi NW 11.5 mph - 0.00 in Fog , Snow Light Snow
5:49 PM 10.4 °F -5.4 °F 5.0 °F 79% 30.09 in 1.0 mi NW 13.8 mph - 0.00 in Snow Light Snow
5:53 PM 10.0 °F -5.2 °F 5.0 °F 80% 30.17 in 1.2 mi NW 12.7 mph - 0.00 in Snow Light Snow
6:03 PM 10.4 °F -2.4 °F 5.0 °F 79% 30.09 in 2.0 mi NW 9.2 mph - 0.00 in Snow Light Snow
6:12 PM 10.4 °F -2.4 °F 3.2 °F 73% 30.10 in 6.0 mi NNW 9.2 mph - 0.00 in Snow Light Snow
6:53 PM 10.9 °F 0.2 °F 3.9 °F 73% 30.18 in 9.0 mi NNW 6.9 mph - 0.00 in   Overcast
7:29 PM 10.4 °F - 6.8 °F 85% 30.10 in 3.0 mi Calm Calm - 0.00 in Snow Light Snow
7:45 PM 10.4 °F - 6.8 °F 85% 30.10 in 7.0 mi Calm Calm - 0.00 in Snow Light Snow
7:53 PM 10.9 °F 4.7 °F 6.1 °F 81% 30.18 in 7.0 mi NW 3.5 mph - 0.00 in Snow Light Snow
8:08 PM 10.4 °F 2.2 °F 6.8 °F 85% 30.10 in 2.5 mi NW 4.6 mph - 0.00 in Snow Light Snow
8:16 PM 10.4 °F 2.2 °F 6.8 °F 85% 30.10 in 1.2 mi NW 4.6 mph - 0.00 in Snow Light Snow
8:30 PM 10.4 °F 0.8 °F 8.6 °F 92% 30.10 in 0.8 mi WNW 5.8 mph - 0.00 in Snow Light Snow
8:43 PM 10.4 °F - 8.6 °F 92% 30.10 in 0.5 mi Calm Calm - 0.02 in Fog , Snow Snow
8:53 PM 10.9 °F 2.9 °F 8.1 °F 88% 30.17 in 0.8 mi WNW 4.6 mph - 0.02 in Snow Light Snow
9:11 PM 10.4 °F 2.2 °F 8.6 °F 92% 30.09 in 1.2 mi North 4.6 mph - 0.01 in Snow Light Snow
9:16 PM 10.4 °F 2.2 °F 6.8 °F 85% 30.09 in 2.0 mi NNW 4.6 mph - 0.01 in Snow Light Snow
9:32 PM 10.4 °F -0.4 °F 5.0 °F 79% 30.09 in 3.0 mi NNW 6.9 mph - 0.01 in Snow Light Snow
9:43 PM 10.4 °F -2.4 °F 5.0 °F 79% 30.09 in 2.5 mi NNW 9.2 mph - 0.01 in Snow Light Snow
9:53 PM 10.9 °F -0.8 °F 3.9 °F 73% 30.17 in 3.0 mi North 8.1 mph - 0.01 in Snow Light Snow
10:19 PM 10.4 °F 0.8 °F 3.2 °F 73% 30.09 in 7.0 mi NNW 5.8 mph - 0.00 in Snow Light Snow
10:44 PM 8.6 °F 2.0 °F 3.2 °F 79% 30.08 in 5.0 mi NNW 3.5 mph - 0.00 in Snow Light Snow
10:53 PM 10.0 °F 1.8 °F 3.0 °F 73% 30.16 in 3.0 mi North 4.6 mph - 0.00 in Snow Light Snow
11:07 PM 10.4 °F -1.5 °F 5.0 °F 79% 30.08 in 9.0 mi North 8.1 mph - 0.00 in   Overcast
11:37 PM 10.4 °F -3.3 °F 6.8 °F 85% 30.08 in 1.8 mi North 10.4 mph - 0.00 in Snow Light Snow
11:45 PM 10.4 °F -1.5 °F 6.8 °F 85% 30.08 in 1.5 mi North 8.1 mph - 0.00 in Snow Light Snow
11:53 PM 10.0 °F -4.5 °F 6.1 °F 84% 30.15 in 2.0 mi North 11.5 mph - 0.00 in Snow Light Snow
11:56 PM 10.4 °F -4.1 °F 6.8 °F 85% 30.07 in 3.0 mi North 11.5 mph - 0.00 in Snow Light Snow